Regional Weather Roundup
Issued by NWS

Home | Current Version | Previous Version | Text Only | Print | Product List | Glossary On
Versions: 1 2 3 4 5 6 7 8 9 10 11 12 13 14 15 16 17 18 19 20 21 22 23 24 25 26 27 28 29 30 31 32 33 34 35 36 37 38 39 40 41 42 43 44 45 46 47 48 49 50
000
ASUS45 KSLC 290210
RWRUT

UTAH REGIONAL WEATHER ROUNDUP
NATIONAL WEATHER SERVICE SALT LAKE CITY UT
800 PM MDT FRI APR 28 2017

UTZ001>011-023>025-290300-

NORTHERN UTAH

CITY           SKY/WX    TMP DP  RH WIND       PRES   REMARKS
BRIGHAM CITY   CLOUDY    46  32  60 N15       29.99R
HILL AFB       MOCLDY    41  32  71 N15G21    29.97R
LOGAN          CLOUDY    43  36  76 NE6       29.98R
OGDEN          CLOUDY    42  34  73 N15G22    29.97R
SALT LAKE CITY CLOUDY    45  35  68 NW16      29.96R
TOOELE VALLEY  CLOUDY    43  34  70 N15G25    29.98S
WENDOVER       MOCLDY    51  19  28 N14G21    30.01R
HEBER CITY     CLOUDY    37  28  70 N25G32    29.91R WCI  26
WEST JORDAN    CLOUDY    45  41  88 NW21G26   29.97R

$$

UTZ011>015-024>027-290300-

CENTRAL/NORTHEAST UTAH

CITY           SKY/WX    TMP DP  RH WIND       PRES   REMARKS
PROVO AIRPORT  CLOUDY    41  34  76 NW24      29.95R
MOAB/CANYONLAN PTCLDY    47  23  38 NW14      29.77R
DELTA          MOCLDY    41  28  60 N14       29.97R
PRICE          MOCLDY    39  24  55 NW13G23   29.85R WCI  31
ROOSEVELT      CLOUDY    39  32  75 W10       29.90R WCI  32
VERNAL         CLOUDY    39  29  67 NE9       29.87R WCI  33

$$

UTZ013>016-019>022-027-290300-

SOUTHERN UTAH

CITY           SKY/WX    TMP DP  RH WIND       PRES   REMARKS
BRYCE CANYON   CLOUDY    31  19  61 NW20G25   29.89R WCI  19
CEDAR CITY     PTCLDY    40  22  48 NE21G31   29.93R WCI  30
MILFORD        LGT RAIN  39  31  72 NE17G31   29.95R WCI  30
ST GEORGE      CLOUDY    56  22  26 SW8       29.88S
HANKSVILLE     MOCLDY    50  19  29 NW16G23   29.82R
BLANDING       CLOUDY    42  15  34 NW15G24   29.86R

$$

REGIONAL REPORTS     COLORADO/ARIZONA

CITY           SKY/WX    TMP DP  RH WIND       PRES   REMARKS
CRAIG, CO      LGT SNOW  34  30  85 S7        29.86R FOG     WCI  28
GRAND JUNCTION CLEAR     46  22  38 N10       29.78R
RIFLE, CO      CLOUDY    42  25  50 NW10      29.81R
MONTROSE, CO   CLOUDY    41  22  46 SE12      29.79S
CORTEZ, CO     MOCLDY    38  21  50 N3        29.78S
COLORADO CITY    N/A     50  18  27 NW9G17    29.91R
PAGE, AZ       MOCLDY    53  14  21 N7        29.81R
GRAND CANYON   PTCLDY    39  13  34 VRB6      29.86R WCI  35
KINGMAN, AZ    CLEAR     57  14  18 N22G29    29.85R
FLAGSTAFF, AZ  MOCLDY    39   4  23 NW8G20    29.82R WCI  33

$$

REGIONAL REPORTS    NEVADA/IDAHO/WYOMING

CITY           SKY/WX    TMP DP  RH WIND       PRES   REMARKS
LAS VEGAS, NV  PTCLDY    67   1   7 N23G31    29.85R
ELY, NY        MOCLDY    37  21  52 N16       30.03R WCI  28
ELKO, NV       CLEAR     46  19  34 N15       30.08R
POCATELLO, ID  CLOUDY    45  34  65 S3        30.01R
BURLEY, ID     CLOUDY    50  26  39 W15G28    30.01R
FORT BRIDGER,  CLOUDY    31  26  78 E10       30.00R WCI  23
EVANSTON, WY   CLOUDY    29  28  96 N10       29.97R WCI  20
ROCK SPRINGS,  LGT SNOW  30  24  78 NE25G32   29.95R WCI  16
KEMMERER, WY   LGT SNOW  28  27  93 E12G18    29.98R VSB 3/4 WCI  18

$$



USA.gov is the U.S. government's official web portal to all federal, state and local government web resources and services.